K5VP Weather Reports


Display with metric or nautical units.
time (UTC)temp
F
wind
direction
speed
MPH
gust
MPH
rain 1hr
in
rain 24hr
in
rain mn
in
humidity
%
barometer
mb
20260502205445 66 302 1.0 10.0 0.00 0.00 0.00 33 1017.1
20260502204928 66 0 1.0 10.0 0.00 0.00 0.00 35 1017.1
20260502204410 66 221 1.0 10.0 0.00 0.00 0.00 35 1017.0
20260502203854 67 250 1.0 9.0 0.00 0.00 0.00 35 1017.0
20260502203344 67 121 1.0 9.0 0.00 0.00 0.00 35 1017.1
20260502202828 67 342 1.0 6.0 0.00 0.00 0.00 36 1017.2
20260502202329 67 92 1.0 6.0 0.00 0.00 0.00 40 1017.3
20260502201831 66 5 0.0 5.0 0.00 0.00 0.00 40 1017.1
20260502201318 66 29 0.0 5.0 0.00 0.00 0.00 41 1017.2
20260502200824 66 115 0.0 0.0 0.00 0.00 0.00 42 1017.3
20260502200331 67 349 0.0 6.0 0.00 0.00 0.00 41 1017.3
20260502195835 67 125 0.0 4.0 0.00 0.00 0.00 41 1017.5
20260502195337 67 266 0.0 4.0 0.00 0.00 0.00 42 1017.5
20260502194843 68 12 0.0 4.0 0.00 0.00 0.00 41 1017.5
20260502194330 68 181 0.0 0.0 0.00 0.00 0.00 41 1017.4
20260502193818 67 238 0.0 7.0 0.00 0.00 0.00 39 1017.5
20260502193320 67 229 0.0 4.0 0.00 0.00 0.00 40 1017.4
20260502192802 66 137 0.0 4.0 0.00 0.00 0.00 41 1017.6
20260502192246 65 213 0.0 1.0 0.00 0.00 0.00 43 1017.6
20260502191724 64 102 0.0 7.0 0.00 0.00 0.00 44 1017.5
20260502191213 64 212 0.0 3.0 0.00 0.00 0.00 41 1017.3
20260502190708 64 307 0.0 0.0 0.00 0.00 0.00 43 1017.4
20260502190215 64 214 0.0 6.0 0.00 0.00 0.00 42 1017.5
20260502185712 64 207 0.0 0.0 0.00 0.00 0.00 44 1017.7
20260502185212 65 220 0.0 4.0 0.00 0.00 0.00 41 1017.7
20260502184652 65 149 0.0 0.0 0.00 0.00 0.00 41 1017.7
20260502184137 66 130 0.0 4.0 0.00 0.00 0.00 44 1017.8
20260502183616 66 31 0.0 1.0 0.00 0.00 0.00 42 1017.7
20260502183101 66 37 0.0 3.0 0.00 0.00 0.00 41 1018.0
20260502182607 65 0 0.0 3.0 0.00 0.00 0.00 45 1018.0
20260502182109 65 104 0.0 5.0 0.00 0.00 0.00 42 1018.0
20260502181616 66 325 0.0 5.0 0.00 0.00 0.00 40 1018.1
20260502181113 66 235 0.0 5.0 0.00 0.00 0.00 42 1018.2
20260502180606 66 229 0.0 4.0 0.00 0.00 0.00 41 1018.2
20260502180107 66 149 0.0 4.0 0.00 0.00 0.00 42 1018.2
20260502170409 65 229 0.0 3.0 0.00 0.00 0.00 43 1019.1
20260502164323 65 212 0.0 0.0 0.00 0.00 0.00 43 1019.1
20260502163819 64 332 0.0 0.0 0.00 0.00 0.00 43 1019.3
20260502163258 64 8 0.0 2.0 0.00 0.00 0.00 44 1019.4
20260502162748 64 213 0.0 0.0 0.00 0.00 0.00 42 1019.3
20260502162241 65 300 0.0 2.0 0.00 0.00 0.00 41 1019.4
20260502161746 65 276 0.0 2.0 0.00 0.00 0.00 42 1019.4
20260502161252 64 189 0.0 1.0 0.00 0.00 0.00 40 1019.4
20260502160731 64 120 0.0 0.0 0.00 0.00 0.00 44 1019.5
20260502160228 64 82 0.0 0.0 0.00 0.00 0.00 41 1019.5
20260502152125 62 128 0.0 0.0 0.00 0.00 0.00 49 1019.7
20260502151603 61 193 0.0 0.0 0.00 0.00 0.00 48 1019.7
20260502151101 62 193 0.0 0.0 0.00 0.00 0.00 46 1019.7
20260502150544 63 1 0.0 2.0 0.00 0.00 0.00 48 1019.7
20260502130702 49 123 0.0 0.0 0.00 0.00 0.00 94 1019.3
20260502130148 48 124 0.0 0.0 0.00 0.00 0.00 95 1019.3
20260502123558 45 121 0.0 0.0 0.00 0.00 0.00 95 1019.2
20260502123055 45 121 0.0 0.0 0.00 0.00 0.00 95 1019.2
20260502122538 44 121 0.0 0.0 0.00 0.00 0.00 95 1019.1
20260502122028 43 121 0.0 0.0 0.00 0.00 0.00 95 1019.0
20260502121535 43 120 0.0 0.0 0.00 0.00 0.00 95 1019.0
20260502121031 42 120 0.0 0.0 0.00 0.00 0.00 95 1018.9
20260502120528 42 120 0.0 0.0 0.00 0.00 0.00 95 1018.9
20260502115530 41 118 0.0 0.0 0.00 0.00 0.00 94 1018.8
20260502115009 41 118 0.0 0.0 0.00 0.00 0.00 94 1018.8
20260502114504 41 118 0.0 0.0 0.00 0.00 0.00 94 1018.7
20260502113953 40 117 0.0 0.0 0.00 0.00 0.00 94 1018.7
20260502113454 40 117 0.0 0.0 0.00 0.00 0.00 94 1018.5
20260502112953 40 117 0.0 0.0 0.00 0.00 0.00 94 1018.4
20260502112440 40 117 0.0 0.0 0.00 0.00 0.00 94 1018.4
20260502111931 40 117 0.0 0.0 0.00 0.00 0.00 94 1018.4
20260502111410 40 117 0.0 0.0 0.00 0.00 0.00 94 1018.4
20260502110849 40 117 0.0 0.0 0.00 0.00 0.00 94 1018.4
20260502110339 40 117 0.0 0.0 0.00 0.00 0.00 93 1018.4
20260502105841 40 117 0.0 0.0 0.00 0.00 0.00 93 1018.4
20260502105327 40 117 0.0 0.0 0.00 0.00 0.00 93 1018.3
20260502104829 40 117 0.0 0.0 0.00 0.00 0.00 93 1018.3
20260502104321 41 117 0.0 0.0 0.00 0.00 0.00 93 1018.3
20260502103815 41 117 0.0 0.0 0.00 0.00 0.00 93 1018.3
20260502103305 41 117 0.0 0.0 0.00 0.00 0.00 93 1018.2
20260502102759 41 117 0.0 0.0 0.00 0.00 0.00 93 1018.2
20260502102305 41 117 0.0 0.0 0.00 0.00 0.00 93 1018.2
20260502101743 41 117 0.0 0.0 0.00 0.00 0.00 93 1018.2
20260502101250 41 117 0.0 0.0 0.00 0.00 0.00 93 1018.2
20260502100752 41 117 0.0 0.0 0.00 0.00 0.00 93 1018.2
20260502100232 41 117 0.0 0.0 0.00 0.00 0.00 93 1018.1
20260502091033 43 117 0.0 0.0 0.00 0.00 0.00 92 1018.0
20260502090514 43 117 0.0 0.0 0.00 0.00 0.00 91 1018.0
20260502071249 46 117 0.0 0.0 0.00 0.00 0.00 85 1018.4
20260502070748 46 117 0.0 0.0 0.00 0.00 0.00 85 1018.4
20260502070250 46 117 0.0 0.0 0.00 0.00 0.00 85 1018.5
20260502065730 46 117 0.0 0.0 0.00 0.00 0.00 85 1018.5
20260502065209 46 117 0.0 0.0 0.00 0.00 0.00 85 1018.5
20260502064654 46 117 0.0 0.0 0.00 0.00 0.00 85 1018.5
20260502064158 45 117 0.0 0.0 0.00 0.00 0.00 85 1018.6
20260502063654 45 117 0.0 0.0 0.00 0.00 0.00 84 1018.8
20260502063157 45 117 0.0 0.0 0.00 0.00 0.00 83 1018.8
20260502062649 45 117 0.0 0.0 0.00 0.00 0.00 83 1018.8
20260502062130 45 117 0.0 0.0 0.00 0.00 0.00 83 1018.8
20260502061611 45 117 0.0 0.0 0.00 0.00 0.00 82 1018.8
20260502061110 46 117 0.0 0.0 0.00 0.00 0.00 81 1019.0
20260502060553 46 117 0.0 0.0 0.00 0.00 0.00 81 1019.0
20260502060048 46 117 0.0 0.0 0.00 0.00 0.00 81 1019.2
20260502055539 46 117 0.0 0.0 0.00 0.00 0.00 79 1019.1
20260502055039 47 117 0.0 0.0 0.00 0.00 0.00 78 1019.0
20260502054527 47 117 0.0 0.0 0.00 0.00 0.00 78 1019.0
20260502054008 47 117 0.0 0.0 0.00 0.00 0.00 78 1018.9
20260502053451 47 117 0.0 0.0 0.00 0.00 0.00 77 1018.9
20260502052934 47 117 0.0 0.0 0.00 0.00 0.00 77 1018.7
20260502052435 48 117 0.0 0.0 0.00 0.00 0.00 77 1018.7
20260502051932 48 117 0.0 0.0 0.00 0.00 0.00 77 1018.6
20260502051420 48 117 0.0 0.0 0.00 0.00 0.00 76 1018.5
20260502050907 48 117 0.0 0.0 0.00 0.00 0.00 76 1018.5
20260502050414 48 117 0.0 0.0 0.00 0.00 0.00 75 1018.6
20260502045854 48 117 0.0 0.0 0.00 0.00 0.00 75 1018.5
20260502045344 48 117 0.0 0.0 0.00 0.00 0.00 74 1018.4
20260502044847 48 117 0.0 0.0 0.00 0.00 0.00 74 1018.3
20260502044353 49 117 0.0 0.0 0.00 0.00 0.00 74 1018.3
20260502043855 49 117 0.0 0.0 0.00 0.00 0.00 73 1018.3
20260502043342 49 117 0.0 0.0 0.00 0.00 0.00 73 1018.4
20260502042834 49 117 0.0 0.0 0.00 0.00 0.00 72 1018.4
20260502042333 49 117 0.0 0.0 0.00 0.00 0.00 72 1018.5
20260502041828 49 117 0.0 0.0 0.00 0.00 0.00 71 1018.6
20260502041322 49 117 0.0 0.0 0.00 0.00 0.00 71 1018.6
20260502040813 49 117 0.0 0.0 0.00 0.00 0.00 71 1018.6
20260502040257 49 117 0.0 0.0 0.00 0.00 0.00 70 1018.8
20260502035800 49 117 0.0 0.0 0.00 0.00 0.00 70 1018.9
20260502035249 49 117 0.0 0.0 0.00 0.00 0.00 71 1019.0
20260502034740 49 117 0.0 0.0 0.00 0.00 0.00 71 1019.1
20260502034224 49 117 0.0 0.0 0.00 0.00 0.00 70 1019.1
20260502033714 49 117 0.0 0.0 0.00 0.00 0.00 69 1019.2
20260502033210 50 117 0.0 0.0 0.00 0.00 0.00 69 1019.2
20260502032712 50 117 0.0 0.0 0.00 0.00 0.00 69 1019.3
20260502032202 50 117 0.0 0.0 0.00 0.00 0.00 68 1019.4
20260502031648 50 117 0.0 0.0 0.00 0.00 0.00 67 1019.4
20260502031144 50 117 0.0 0.0 0.00 0.00 0.00 67 1019.5
20260502030628 51 117 0.0 0.0 0.00 0.00 0.00 65 1019.5
20260502030115 51 117 0.0 0.0 0.00 0.00 0.00 65 1019.6
20260502025622 51 117 0.0 0.0 0.00 0.00 0.00 66 1019.7
20260502025112 52 117 0.0 0.0 0.00 0.00 0.00 65 1019.7
20260502024559 52 117 0.0 0.0 0.00 0.00 0.00 63 1019.6
20260502024048 52 117 0.0 0.0 0.00 0.00 0.00 63 1019.7
20260502023544 53 117 0.0 0.0 0.00 0.00 0.00 61 1019.7
20260502023030 53 117 0.0 0.0 0.00 0.00 0.00 61 1019.7
20260502022536 53 117 0.0 0.0 0.00 0.00 0.00 59 1019.7
20260502022015 54 117 0.0 0.0 0.00 0.00 0.00 59 1019.4
20260502021507 54 117 0.0 0.0 0.00 0.00 0.00 58 1019.3
20260502021011 54 86 0.0 0.0 0.00 0.00 0.00 57 1019.2
20260502020450 54 86 0.0 0.0 0.00 0.00 0.00 57 1019.1
20260502015936 54 84 0.0 0.0 0.00 0.00 0.00 57 1019.0
20260502015424 54 83 0.0 0.0 0.00 0.00 0.00 57 1018.9
20260502014918 54 84 0.0 0.0 0.00 0.00 0.00 56 1019.0
20260502014419 54 83 0.0 0.0 0.00 0.00 0.00 56 1019.0
20260502013909 55 84 0.0 0.0 0.00 0.00 0.00 56 1018.7
20260502013347 55 83 0.0 0.0 0.00 0.00 0.00 55 1018.6
20260502012839 55 83 0.0 0.0 0.00 0.00 0.00 54 1018.6
20260502012345 55 83 0.0 0.0 0.00 0.00 0.00 53 1018.5
20260502011824 55 84 0.0 0.0 0.00 0.00 0.00 53 1018.3
20260502011321 56 83 0.0 0.0 0.00 0.00 0.00 53 1018.2
20260502010819 56 83 0.0 0.0 0.00 0.00 0.00 53 1018.1
20260502010257 56 83 0.0 0.0 0.00 0.00 0.00 50 1018.2
20260502005736 57 84 0.0 0.0 0.00 0.00 0.00 49 1018.1
20260502005214 57 83 0.0 0.0 0.00 0.00 0.00 48 1018.0
20260502004716 58 84 0.0 0.0 0.00 0.00 0.00 48 1017.8
20260502004200 58 84 0.0 0.0 0.00 0.00 0.00 47 1017.7
20260502003702 58 84 0.0 0.0 0.00 0.00 0.00 46 1017.8
20260502003143 59 84 0.0 0.0 0.00 0.00 0.00 45 1017.8
20260502002638 59 128 0.0 0.0 0.00 0.00 0.00 45 1017.7
20260502002008 59 84 0.0 0.0 0.00 0.00 0.00 45 1017.4
20260502001340 60 84 0.0 0.0 0.00 0.00 0.00 44 1017.2
20260502000704 60 75 0.0 1.0 0.00 0.00 0.00 43 1017.1
20260502000048 60 64 0.0 1.0 0.00 0.00 0.00 42 1017.0
20260501235413 61 101 0.0 1.0 0.00 0.00 0.00 41 1016.9
20260501234757 61 69 0.0 1.0 0.00 0.00 0.00 42 1016.7
20260501234128 61 39 0.0 2.0 0.00 0.00 0.00 41 1016.7
20260501233500 61 67 0.0 0.0 0.00 0.00 0.00 41 1016.7
20260501232842 61 49 0.0 1.0 0.00 0.00 0.00 40 1016.5
20260501232229 62 51 0.0 0.0 0.00 0.00 0.00 42 1016.6
20260501231604 62 69 0.0 1.0 0.00 0.00 0.00 39 1016.5
20260501230934 62 63 0.0 1.0 0.00 0.00 0.00 41 1016.5
20260501230317 62 36 0.0 0.0 0.00 0.00 0.00 40 1016.4
20260501225645 62 71 0.0 0.0 0.00 0.00 0.00 40 1016.3
20260501225018 62 96 0.0 2.0 0.00 0.00 0.00 39 1016.1
20260501224408 62 55 0.0 2.0 0.00 0.00 0.00 37 1016.1
20260501223750 63 91 0.0 1.0 0.00 0.00 0.00 36 1016.1
20260501223128 63 271 0.0 0.0 0.00 0.00 0.00 36 1016.0
20260501222506 63 70 1.0 10.0 0.00 0.00 0.00 35 1016.0
20260501221842 64 49 0.0 10.0 0.00 0.00 0.00 33 1015.9
20260501221213 64 33 0.0 3.0 0.00 0.00 0.00 35 1015.8
20260501220540 64 129 0.0 3.0 0.00 0.00 0.00 34 1016.0
20260501215919 64 75 0.0 0.0 0.00 0.00 0.00 36 1015.9
20260501215307 64 124 0.0 0.0 0.00 0.00 0.00 36 1016.1
20260501214634 64 110 0.0 6.0 0.00 0.00 0.00 35 1016.0
20260501213958 64 1 0.0 5.0 0.00 0.00 0.00 34 1016.1
20260501213336 65 174 0.0 5.0 0.00 0.00 0.00 33 1016.1
20260501212727 65 191 0.0 3.0 0.00 0.00 0.00 34 1016.0
20260501212113 65 165 0.0 9.0 0.00 0.00 0.00 36 1016.1
20260501211451 64 58 1.0 9.0 0.00 0.00 0.00 36 1016.2
20260501210826 65 75 1.0 9.0 0.00 0.00 0.00 33 1016.2
20260501210149 65 203 0.0 8.0 0.00 0.00 0.00 35 1016.3